Location: Kumla
(59.1265°N, 15.1401°E)
Time: 16:25:25
(UTC+01:00)

Transit 2A - Pass Details

Date: 07 December 2023
Orbit: 600 x 953 km, 66.7° (Epoch: 27 February)

Event Time Altitude Azimuth Distance (km) Brightness Sun altitude
Rises 19:59:43 0° 295° (WNW) 2,953 10.0 -35.6°
Reaches altitude 10° 20:02:15 10° 305° (NW) 2,007 8.9 -36.0°
Enters shadow 20:03:17 16° 313° (NW) 1,650 8.3 -36.1°
Maximum altitude 20:06:18 33° 10° (N) 1,042 - -36.5°
Drops below altitude 10° 20:10:14 10° 75° (ENE) 1,951 - -36.9°
Sets 20:12:40 0° 85° (E) 2,857 - -37.2°
